RYR89NR LHBP-EGSS

Flight info

Callsign RYR89NR
Flight time 2h 11m
Altitude 38000
Route GILEP DCT ZOLKU DCT BEGLA DCT UBUXI DCT DITIS DCT RAPET DCT MASEK DCT ARPEG DCT NOGRO M40 RINIS
Aircraft B738/M-SDE3FGILRWY/SB1

Departure

Time 2026-05-06 11:54
Airport Budapest Liszt Ferenc International Airport (LHBP)

Arrival

Time 2026-05-06 14:06
Airport London Stansted Airport (EGSS)
Time Latitude Longitude Altitude Speed Heading
2026-05-06 11:39 47.43387 19.25794 456 ft 0 kts 222°
2026-05-06 11:47 47.43389 19.25796 456 ft 1 kts 222°
2026-05-06 11:48 47.43401 19.25813 456 ft 3 kts 226°
2026-05-06 11:48 47.43415 19.25835 456 ft 3 kts 233°
2026-05-06 11:48 47.43426 19.25860 456 ft 3 kts 242°
2026-05-06 11:48 47.43434 19.25887 455 ft 3 kts 261°
2026-05-06 11:49 47.43434 19.25912 455 ft 2 kts 301°
2026-05-06 11:49 47.43431 19.25919 456 ft 0 kts 312°
2026-05-06 11:51 47.43448 19.25892 454 ft 7 kts 311°
2026-05-06 11:51 47.43479 19.25833 456 ft 7 kts 301°
2026-05-06 11:51 47.43511 19.25768 456 ft 9 kts 310°
2026-05-06 11:52 47.43564 19.25711 456 ft 10 kts 357°
2026-05-06 11:52 47.43632 19.25776 454 ft 14 kts 42°
2026-05-06 11:52 47.43711 19.25878 455 ft 17 kts 42°
2026-05-06 11:52 47.43804 19.26005 456 ft 20 kts 42°
2026-05-06 11:53 47.43914 19.26150 457 ft 23 kts 43°
2026-05-06 11:53 47.44022 19.26300 460 ft 17 kts 44°
2026-05-06 11:53 47.44072 19.26451 470 ft 17 kts 88°
2026-05-06 11:53 47.44021 19.26599 467 ft 19 kts 132°
2026-05-06 11:54 47.43852 19.26872 469 ft 67 kts 132°
2026-05-06 11:54 47.43380 19.27635 466 ft 133 kts 131°
2026-05-06 11:54 47.42647 19.28804 587 ft 171 kts 135°
2026-05-06 11:54 47.41918 19.30192 1388 ft 175 kts 126°
2026-05-06 11:55 47.41320 19.31805 2094 ft 183 kts 125°
2026-05-06 11:55 47.40696 19.33508 2710 ft 194 kts 124°
2026-05-06 11:55 47.39991 19.35368 2983 ft 221 kts 125°
2026-05-06 11:55 47.39189 19.37433 3233 ft 241 kts 124°
2026-05-06 11:56 47.38287 19.39591 3615 ft 256 kts 137°
2026-05-06 11:56 47.36771 19.40852 4185 ft 253 kts 174°
2026-05-06 11:56 47.35062 19.40653 5006 ft 246 kts 202°
2026-05-06 11:56 47.33648 19.39254 5784 ft 248 kts 227°
2026-05-06 11:57 47.32654 19.37163 6606 ft 251 kts 237°
2026-05-06 11:57 47.31790 19.34917 7346 ft 254 kts 239°
2026-05-06 11:57 47.30936 19.32615 8061 ft 258 kts 240°
2026-05-06 11:57 47.30068 19.30281 8805 ft 261 kts 240°
2026-05-06 11:58 47.29180 19.27923 9543 ft 265 kts 240°
2026-05-06 11:58 47.28274 19.25537 10221 ft 269 kts 240°
2026-05-06 11:58 47.27321 19.23041 10446 ft 292 kts 240°
2026-05-06 11:58 47.26287 19.20345 10641 ft 312 kts 240°
2026-05-06 11:59 47.25202 19.17527 11177 ft 320 kts 240°
2026-05-06 11:59 47.24095 19.14657 11826 ft 324 kts 240°
2026-05-06 11:59 47.22976 19.11764 12564 ft 327 kts 240°
2026-05-06 11:59 47.21843 19.08841 13257 ft 331 kts 241°
2026-05-06 12:00 47.20770 19.05831 13930 ft 335 kts 250°
2026-05-06 12:00 47.20405 19.02444 14570 ft 340 kts 271°
2026-05-06 12:00 47.20837 18.98991 15145 ft 349 kts 287°
2026-05-06 12:00 47.22020 18.95829 15758 ft 358 kts 303°
2026-05-06 12:01 47.23551 18.92907 16441 ft 363 kts 305°
2026-05-06 12:01 47.25145 18.89978 16938 ft 372 kts 305°
2026-05-06 12:01 47.26785 18.86979 17499 ft 378 kts 306°
2026-05-06 12:01 47.28433 18.83943 18156 ft 382 kts 305°
2026-05-06 12:02 47.30088 18.80864 18723 ft 385 kts 305°
2026-05-06 12:02 47.31747 18.77756 19342 ft 386 kts 305°
2026-05-06 12:02 47.33405 18.74634 19979 ft 387 kts 304°
2026-05-06 12:02 47.35064 18.71502 20586 ft 388 kts 304°
2026-05-06 12:03 47.36728 18.68354 21179 ft 390 kts 304°
2026-05-06 12:03 47.38401 18.65185 21764 ft 392 kts 305°
2026-05-06 12:03 47.39513 18.63077 22150 ft 394 kts 305°
2026-05-06 12:03 47.41175 18.59856 22722 ft 394 kts 301°
2026-05-06 12:04 47.42305 18.56210 23207 ft 392 kts 283°
2026-05-06 12:04 47.43043 18.52335 23735 ft 393 kts 283°
2026-05-06 12:04 47.43790 18.48433 24130 ft 396 kts 283°
2026-05-06 12:04 47.44556 18.44523 24582 ft 398 kts 284°
2026-05-06 12:05 47.45339 18.40593 24995 ft 401 kts 284°
2026-05-06 12:05 47.46138 18.36625 25366 ft 404 kts 284°
2026-05-06 12:05 47.46944 18.32639 25780 ft 406 kts 284°
2026-05-06 12:05 47.47753 18.28625 26182 ft 409 kts 284°
2026-05-06 12:06 47.48559 18.24583 26574 ft 410 kts 283°
2026-05-06 12:06 47.49279 18.20496 26984 ft 412 kts 281°
2026-05-06 12:06 47.49945 18.16370 27397 ft 413 kts 280°
2026-05-06 12:06 47.50601 18.12224 27769 ft 415 kts 280°
2026-05-06 12:07 47.51266 18.08054 28113 ft 418 kts 280°
2026-05-06 12:07 47.51944 18.03855 28478 ft 420 kts 280°
2026-05-06 12:07 47.52629 17.99648 28835 ft 422 kts 280°
2026-05-06 12:07 47.53321 17.95416 29168 ft 424 kts 280°
2026-05-06 12:08 47.54018 17.91156 29501 ft 427 kts 280°
2026-05-06 12:08 47.54715 17.86879 29830 ft 429 kts 280°
2026-05-06 12:08 47.55459 17.82598 30122 ft 432 kts 284°
2026-05-06 12:08 47.56573 17.78443 30437 ft 436 kts 293°
2026-05-06 12:09 47.58080 17.74536 30808 ft 437 kts 297°
2026-05-06 12:09 47.59645 17.70690 31246 ft 434 kts 297°
2026-05-06 12:09 47.61201 17.66879 31734 ft 430 kts 297°
2026-05-06 12:09 47.62731 17.63107 32227 ft 425 kts 297°
2026-05-06 12:10 47.64237 17.59358 32689 ft 421 kts 296°
2026-05-06 12:10 47.65723 17.55631 33101 ft 419 kts 296°
2026-05-06 12:10 47.67195 17.51919 33509 ft 416 kts 296°
2026-05-06 12:10 47.68653 17.48230 33918 ft 413 kts 296°
2026-05-06 12:11 47.70098 17.44571 34281 ft 410 kts 295°
2026-05-06 12:11 47.71535 17.40922 34529 ft 410 kts 295°
2026-05-06 12:11 47.72976 17.37255 34646 ft 413 kts 295°
2026-05-06 12:11 47.74427 17.33562 34820 ft 414 kts 295°
2026-05-06 12:12 47.75859 17.29915 35070 ft 413 kts 295°
2026-05-06 12:12 47.77307 17.26223 35297 ft 414 kts 295°
2026-05-06 12:12 47.78778 17.22468 35412 ft 417 kts 295°
2026-05-06 12:12 47.80220 17.18782 35570 ft 418 kts 295°
2026-05-06 12:13 47.81680 17.15045 35819 ft 417 kts 295°
2026-05-06 12:13 47.83196 17.11361 36053 ft 420 kts 300°
2026-05-06 12:13 47.85061 17.07971 36212 ft 426 kts 307°
2026-05-06 12:13 47.87060 17.04716 36427 ft 426 kts 307°
2026-05-06 12:14 47.89070 17.01474 36619 ft 427 kts 307°
2026-05-06 12:14 47.91083 16.98212 36768 ft 428 kts 307°
2026-05-06 12:14 47.93093 16.94932 36953 ft 428 kts 307°
2026-05-06 12:14 47.95093 16.91645 37133 ft 428 kts 307°
2026-05-06 12:15 47.97091 16.88346 37304 ft 429 kts 307°
2026-05-06 12:15 47.99088 16.85039 37456 ft 429 kts 307°
2026-05-06 12:15 48.01086 16.81724 37627 ft 430 kts 307°
2026-05-06 12:15 48.03086 16.78400 37775 ft 430 kts 307°
2026-05-06 12:16 48.07104 16.71712 37806 ft 434 kts 307°
2026-05-06 12:16 48.11123 16.65012 37800 ft 431 kts 307°
2026-05-06 12:17 48.15048 16.58260 37801 ft 428 kts 304°
2026-05-06 12:17 48.18703 16.51278 37803 ft 425 kts 302°
2026-05-06 12:18 48.22307 16.44259 37827 ft 424 kts 302°
2026-05-06 12:18 48.25924 16.37259 37810 ft 424 kts 302°
2026-05-06 12:19 48.29547 16.30274 37797 ft 424 kts 302°
2026-05-06 12:19 48.33165 16.23293 37803 ft 424 kts 302°
2026-05-06 12:20 48.36782 16.16298 37793 ft 424 kts 302°
2026-05-06 12:20 48.40396 16.09291 37826 ft 425 kts 302°
2026-05-06 12:21 48.44013 16.02257 37807 ft 425 kts 302°
2026-05-06 12:21 48.47633 15.95200 37787 ft 426 kts 302°
2026-05-06 12:22 48.51254 15.88122 37796 ft 426 kts 302°
2026-05-06 12:22 48.54872 15.81033 37792 ft 427 kts 302°
2026-05-06 12:23 48.58494 15.73916 37786 ft 428 kts 302°
2026-05-06 12:23 48.62120 15.66772 37797 ft 429 kts 302°
2026-05-06 12:24 48.65751 15.59599 37798 ft 430 kts 302°
2026-05-06 12:24 48.69392 15.52388 37824 ft 432 kts 302°
2026-05-06 12:25 48.73042 15.45138 37802 ft 433 kts 301°
2026-05-06 12:25 48.76699 15.37855 37800 ft 435 kts 301°
2026-05-06 12:26 48.80366 15.30533 37802 ft 437 kts 301°
2026-05-06 12:26 48.84044 15.23168 37794 ft 438 kts 301°
2026-05-06 12:27 48.87729 15.15772 37794 ft 439 kts 301°
2026-05-06 12:27 48.91405 15.08354 37793 ft 440 kts 301°
2026-05-06 12:28 48.95055 15.00885 37798 ft 440 kts 301°
2026-05-06 12:28 48.98692 14.93407 37787 ft 439 kts 301°
2026-05-06 12:29 49.02295 14.85984 37796 ft 438 kts 301°
2026-05-06 12:29 49.05907 14.78528 37789 ft 437 kts 301°
2026-05-06 12:30 49.09505 14.71083 37790 ft 435 kts 301°
2026-05-06 12:30 49.13085 14.63654 37802 ft 434 kts 300°
2026-05-06 12:31 49.16651 14.56232 37793 ft 432 kts 300°
2026-05-06 12:31 49.20200 14.48826 37795 ft 431 kts 300°
2026-05-06 12:32 49.23736 14.41426 37799 ft 431 kts 300°
2026-05-06 12:32 49.27263 14.34024 37837 ft 430 kts 300°
2026-05-06 12:33 49.30790 14.26601 37810 ft 431 kts 300°
2026-05-06 12:33 49.34317 14.19157 37804 ft 432 kts 300°
2026-05-06 12:34 49.37849 14.11681 37799 ft 433 kts 300°
2026-05-06 12:34 49.41385 14.04178 37802 ft 434 kts 300°
2026-05-06 12:35 49.44921 13.96654 37830 ft 435 kts 300°
2026-05-06 12:35 49.48464 13.89094 37812 ft 436 kts 300°
2026-05-06 12:36 49.52010 13.81505 37798 ft 437 kts 300°
2026-05-06 12:36 49.55558 13.73889 37801 ft 438 kts 300°
2026-05-06 12:37 49.59110 13.66246 37796 ft 439 kts 300°
2026-05-06 12:37 49.62656 13.58592 37834 ft 439 kts 300°
2026-05-06 12:38 49.66202 13.50916 37804 ft 439 kts 300°
2026-05-06 12:38 49.69740 13.43236 37795 ft 438 kts 300°
2026-05-06 12:39 49.73266 13.35560 37799 ft 437 kts 300°
2026-05-06 12:39 49.76776 13.27895 37801 ft 436 kts 300°
2026-05-06 12:40 49.80275 13.20233 37800 ft 435 kts 300°
2026-05-06 12:40 49.83761 13.12575 37799 ft 435 kts 300°
2026-05-06 12:41 49.87215 13.04966 37790 ft 434 kts 300°
2026-05-06 12:41 49.90685 12.97300 37789 ft 434 kts 300°
2026-05-06 12:42 49.94152 12.89618 37790 ft 434 kts 300°
2026-05-06 12:42 49.97611 12.81934 37820 ft 434 kts 301°
2026-05-06 12:43 50.01067 12.74232 37801 ft 435 kts 301°
2026-05-06 12:43 50.04526 12.66500 37790 ft 435 kts 301°
2026-05-06 12:44 50.07981 12.58757 37790 ft 436 kts 300°
2026-05-06 12:44 50.11436 12.50988 37787 ft 437 kts 300°
2026-05-06 12:45 50.14893 12.43195 37798 ft 437 kts 300°
2026-05-06 12:46 50.19673 12.31128 37768 ft 431 kts 286°
2026-05-06 12:46 50.21540 12.22267 37771 ft 430 kts 283°
2026-05-06 12:47 50.23344 12.13348 37795 ft 431 kts 284°
2026-05-06 12:47 50.25171 12.04425 37799 ft 432 kts 284°
2026-05-06 12:48 50.27017 11.95478 37801 ft 433 kts 283°
2026-05-06 12:48 50.28867 11.86511 37797 ft 434 kts 283°
2026-05-06 12:49 50.30711 11.77539 37802 ft 434 kts 283°
2026-05-06 12:49 50.32548 11.68551 37802 ft 434 kts 283°
2026-05-06 12:50 50.34070 11.61077 37799 ft 434 kts 283°
2026-05-06 12:50 50.35897 11.52065 37793 ft 434 kts 283°
2026-05-06 12:51 50.37718 11.43039 37783 ft 434 kts 283°
2026-05-06 12:51 50.39530 11.34021 37783 ft 434 kts 283°
2026-05-06 12:52 50.41335 11.24995 37782 ft 434 kts 283°
2026-05-06 12:52 50.43130 11.15976 37796 ft 433 kts 283°
2026-05-06 12:53 50.44917 11.06951 37783 ft 433 kts 283°
2026-05-06 12:53 50.46697 10.97924 37771 ft 433 kts 283°
2026-05-06 12:54 50.48469 10.88894 37767 ft 433 kts 283°
2026-05-06 12:54 50.50233 10.79865 37774 ft 432 kts 283°
2026-05-06 12:55 50.51989 10.70829 37783 ft 432 kts 283°
2026-05-06 12:55 50.53740 10.61778 37762 ft 433 kts 283°
2026-05-06 12:56 50.55484 10.52722 37759 ft 433 kts 283°
2026-05-06 12:56 50.57221 10.43659 37751 ft 433 kts 283°
2026-05-06 12:57 50.58953 10.34578 37751 ft 433 kts 283°
2026-05-06 12:57 50.60678 10.25492 37765 ft 433 kts 283°
2026-05-06 12:58 50.62397 10.16391 37751 ft 434 kts 283°
2026-05-06 12:58 50.64112 10.07270 37745 ft 434 kts 283°
2026-05-06 12:59 50.65818 9.98146 37742 ft 435 kts 283°
2026-05-06 12:59 50.67520 9.89008 37740 ft 435 kts 283°
2026-05-06 13:00 50.69215 9.79855 37742 ft 435 kts 283°
2026-05-06 13:00 50.70906 9.70683 37746 ft 436 kts 283°
2026-05-06 13:01 50.72591 9.61500 37743 ft 436 kts 283°
2026-05-06 13:01 50.74494 9.52393 37735 ft 438 kts 287°
2026-05-06 13:02 50.76606 9.43362 37741 ft 438 kts 287°
2026-05-06 13:02 50.78709 9.34321 37751 ft 439 kts 287°
2026-05-06 13:03 50.80780 9.25244 37745 ft 439 kts 286°
2026-05-06 13:03 50.82832 9.16154 37746 ft 439 kts 286°
2026-05-06 13:04 50.84874 9.07060 37740 ft 439 kts 286°
2026-05-06 13:04 50.86908 8.97962 37743 ft 438 kts 286°
2026-05-06 13:05 50.88933 8.88866 37746 ft 438 kts 286°
2026-05-06 13:05 50.90952 8.79761 37757 ft 438 kts 286°
2026-05-06 13:06 50.92964 8.70647 37746 ft 438 kts 286°
2026-05-06 13:06 50.94953 8.61597 37748 ft 438 kts 285°
2026-05-06 13:07 50.96948 8.52484 37758 ft 437 kts 285°
2026-05-06 13:07 50.98932 8.43374 37762 ft 437 kts 285°
2026-05-06 13:08 51.00912 8.34255 37766 ft 437 kts 285°
2026-05-06 13:08 51.02869 8.25122 37774 ft 437 kts 285°
2026-05-06 13:09 51.04787 8.15969 37772 ft 437 kts 285°
2026-05-06 13:09 51.06693 8.06806 37782 ft 437 kts 285°
2026-05-06 13:10 51.08596 7.97639 37792 ft 437 kts 285°
2026-05-06 13:10 51.10503 7.88424 37784 ft 439 kts 284°
2026-05-06 13:11 51.12407 7.79180 37794 ft 441 kts 284°
2026-05-06 13:11 51.14313 7.69887 37801 ft 442 kts 284°
2026-05-06 13:12 51.16218 7.60553 37823 ft 443 kts 284°
2026-05-06 13:12 51.18118 7.51201 37803 ft 443 kts 284°
2026-05-06 13:13 51.20007 7.41860 37805 ft 442 kts 284°
2026-05-06 13:13 51.21884 7.32533 37806 ft 441 kts 284°
2026-05-06 13:14 51.23748 7.23227 37821 ft 440 kts 284°
2026-05-06 13:14 51.25599 7.13937 37842 ft 438 kts 284°
2026-05-06 13:15 51.27436 7.04677 37849 ft 437 kts 284°
2026-05-06 13:15 51.29263 6.95424 37853 ft 436 kts 284°
2026-05-06 13:16 51.31075 6.86200 37852 ft 435 kts 284°
2026-05-06 13:16 51.32879 6.76974 37831 ft 434 kts 284°
2026-05-06 13:17 51.34671 6.67762 37849 ft 434 kts 284°
2026-05-06 13:17 51.36457 6.58540 37839 ft 434 kts 284°
2026-05-06 13:18 51.38236 6.49309 37849 ft 434 kts 284°
2026-05-06 13:18 51.40011 6.40050 37855 ft 435 kts 284°
2026-05-06 13:19 51.41769 6.30838 37855 ft 436 kts 284°
2026-05-06 13:19 51.43534 6.21544 37874 ft 437 kts 284°
2026-05-06 13:20 51.45297 6.12214 37858 ft 438 kts 284°
2026-05-06 13:20 51.47056 6.02859 37857 ft 438 kts 284°
2026-05-06 13:21 51.48810 5.93486 37859 ft 439 kts 284°
2026-05-06 13:21 51.50557 5.84102 37875 ft 439 kts 284°
2026-05-06 13:22 51.52298 5.74703 37892 ft 439 kts 284°
2026-05-06 13:22 51.54033 5.65288 37880 ft 440 kts 284°
2026-05-06 13:23 51.55759 5.55877 37878 ft 439 kts 283°
2026-05-06 13:23 51.57476 5.46460 37881 ft 439 kts 283°
2026-05-06 13:24 51.59182 5.37059 37883 ft 438 kts 283°
2026-05-06 13:24 51.60880 5.27651 37895 ft 437 kts 283°
2026-05-06 13:25 51.62569 5.18248 37885 ft 437 kts 283°
2026-05-06 13:25 51.64250 5.08841 37883 ft 437 kts 283°
2026-05-06 13:26 51.65920 4.99444 37884 ft 437 kts 283°
2026-05-06 13:26 51.67582 4.90043 37886 ft 436 kts 283°
2026-05-06 13:27 51.69235 4.80642 37893 ft 436 kts 283°
2026-05-06 13:27 51.70880 4.71240 37882 ft 436 kts 283°
2026-05-06 13:28 51.72517 4.61832 37883 ft 435 kts 283°
2026-05-06 13:28 51.74145 4.52427 37885 ft 435 kts 283°
2026-05-06 13:29 51.75764 4.43025 37881 ft 435 kts 283°
2026-05-06 13:29 51.77375 4.33620 37881 ft 435 kts 283°
2026-05-06 13:30 51.78978 4.24209 37881 ft 434 kts 283°
2026-05-06 13:30 51.80572 4.14800 37886 ft 434 kts 283°
2026-05-06 13:31 51.82148 4.05445 37896 ft 434 kts 283°
2026-05-06 13:31 51.83727 3.96022 37893 ft 435 kts 283°
2026-05-06 13:32 51.85301 3.86580 37910 ft 435 kts 283°
2026-05-06 13:32 51.86867 3.77134 37903 ft 435 kts 283°
2026-05-06 13:32 51.87648 3.72399 37664 ft 439 kts 282°
2026-05-06 13:33 51.88436 3.67608 37203 ft 439 kts 283°
2026-05-06 13:33 51.89220 3.62838 36654 ft 437 kts 282°
2026-05-06 13:33 51.89997 3.58092 36106 ft 436 kts 283°
2026-05-06 13:33 51.90768 3.53367 35665 ft 432 kts 283°
2026-05-06 13:34 51.91535 3.48656 35072 ft 433 kts 283°
2026-05-06 13:34 51.92300 3.43943 34498 ft 433 kts 282°
2026-05-06 13:34 51.93064 3.39222 33895 ft 434 kts 282°
2026-05-06 13:34 51.93827 3.34492 33153 ft 434 kts 283°
2026-05-06 13:35 51.94591 3.29753 32479 ft 434 kts 283°
2026-05-06 13:35 51.95351 3.25019 31819 ft 434 kts 283°
2026-05-06 13:35 51.96074 3.20285 31261 ft 431 kts 279°
2026-05-06 13:35 51.96413 3.15497 30762 ft 425 kts 270°
2026-05-06 13:36 51.96373 3.12335 30421 ft 421 kts 263°
2026-05-06 13:36 51.96058 3.07643 29956 ft 417 kts 262°
2026-05-06 13:36 51.95717 3.02997 29407 ft 413 kts 262°
2026-05-06 13:36 51.95382 2.98406 28925 ft 408 kts 262°
2026-05-06 13:37 51.95061 2.93876 28456 ft 402 kts 262°
2026-05-06 13:37 51.94753 2.89396 28004 ft 397 kts 262°
2026-05-06 13:37 51.94451 2.84968 27525 ft 393 kts 262°
2026-05-06 13:37 51.94153 2.80590 27072 ft 389 kts 262°
2026-05-06 13:38 51.93859 2.76255 26613 ft 385 kts 263°
2026-05-06 13:38 51.93564 2.71957 26171 ft 382 kts 262°
2026-05-06 13:38 51.93270 2.67702 25727 ft 379 kts 262°
2026-05-06 13:38 51.92978 2.63481 25284 ft 376 kts 263°
2026-05-06 13:39 51.92690 2.59292 24841 ft 373 kts 263°
2026-05-06 13:39 51.92404 2.55130 24412 ft 370 kts 263°
2026-05-06 13:39 51.92119 2.51006 23989 ft 368 kts 263°
2026-05-06 13:39 51.91834 2.46903 23561 ft 366 kts 263°
2026-05-06 13:40 51.91457 2.41507 22906 ft 362 kts 262°
2026-05-06 13:40 51.91265 2.38769 22587 ft 361 kts 262°
2026-05-06 13:40 51.90981 2.34758 22154 ft 357 kts 263°
2026-05-06 13:40 51.90724 2.30777 21752 ft 354 kts 265°
2026-05-06 13:41 51.90600 2.26814 21392 ft 352 kts 267°
2026-05-06 13:41 51.90529 2.22818 21052 ft 358 kts 268°
2026-05-06 13:41 51.90463 2.18759 20678 ft 363 kts 268°
2026-05-06 13:41 51.90388 2.14661 20304 ft 364 kts 267°
2026-05-06 13:42 51.90304 2.10591 19931 ft 360 kts 267°
2026-05-06 13:42 51.90213 2.06560 19570 ft 357 kts 267°
2026-05-06 13:42 51.90118 2.02562 19209 ft 354 kts 267°
2026-05-06 13:42 51.90022 1.98586 18855 ft 352 kts 267°
2026-05-06 13:43 51.89924 1.94635 18493 ft 351 kts 267°
2026-05-06 13:43 51.89844 1.90692 18137 ft 350 kts 271°
2026-05-06 13:43 51.90321 1.86859 17757 ft 349 kts 291°
2026-05-06 13:43 51.91364 1.83334 17467 ft 346 kts 297°
2026-05-06 13:44 51.92503 1.79921 17154 ft 344 kts 298°
2026-05-06 13:44 51.93660 1.76533 16835 ft 342 kts 298°
2026-05-06 13:44 51.94805 1.73165 16537 ft 341 kts 298°
2026-05-06 13:44 51.95926 1.69836 16242 ft 340 kts 297°
2026-05-06 13:45 51.97049 1.66465 15951 ft 340 kts 297°
2026-05-06 13:45 51.99283 1.59699 15364 ft 340 kts 297°
2026-05-06 13:45 52.00392 1.56317 15068 ft 340 kts 297°
2026-05-06 13:46 52.01501 1.52930 14767 ft 339 kts 297°
2026-05-06 13:46 52.02604 1.49553 14477 ft 338 kts 297°
2026-05-06 13:46 52.03703 1.46185 14178 ft 337 kts 297°
2026-05-06 13:46 52.04793 1.42839 13885 ft 334 kts 297°
2026-05-06 13:47 52.05874 1.39516 13574 ft 331 kts 297°
2026-05-06 13:47 52.06943 1.36225 13256 ft 328 kts 297°
2026-05-06 13:47 52.07999 1.32972 12958 ft 324 kts 297°
2026-05-06 13:47 52.09044 1.29750 12670 ft 320 kts 297°
2026-05-06 13:48 52.10069 1.26581 12389 ft 314 kts 297°
2026-05-06 13:48 52.11064 1.23455 12112 ft 308 kts 294°
2026-05-06 13:48 52.11502 1.20108 11888 ft 301 kts 271°
2026-05-06 13:48 52.11255 1.16770 11680 ft 295 kts 258°
2026-05-06 13:49 52.10739 1.13567 11475 ft 290 kts 256°
2026-05-06 13:49 52.10210 1.10425 11262 ft 285 kts 256°
2026-05-06 13:49 52.09690 1.07335 11054 ft 283 kts 256°
2026-05-06 13:49 52.09171 1.04261 10860 ft 281 kts 257°
2026-05-06 13:50 52.08655 1.01199 10657 ft 282 kts 256°
2026-05-06 13:50 52.08135 0.98123 10462 ft 282 kts 256°
2026-05-06 13:50 52.07612 0.95036 10252 ft 283 kts 256°
2026-05-06 13:50 52.07092 0.91972 10056 ft 279 kts 257°
2026-05-06 13:51 52.06581 0.88965 9856 ft 274 kts 257°
2026-05-06 13:51 52.06078 0.86014 9648 ft 268 kts 257°
2026-05-06 13:51 52.05584 0.83118 9442 ft 265 kts 256°
2026-05-06 13:51 52.05092 0.80229 9263 ft 266 kts 257°
2026-05-06 13:52 52.04595 0.77318 9090 ft 269 kts 256°
2026-05-06 13:52 52.04092 0.74379 8889 ft 272 kts 256°
2026-05-06 13:52 52.03584 0.71412 8694 ft 273 kts 256°
2026-05-06 13:52 52.03074 0.68439 8506 ft 273 kts 256°
2026-05-06 13:53 52.02565 0.65490 8311 ft 269 kts 256°
2026-05-06 13:53 52.02064 0.62587 8120 ft 265 kts 256°
2026-05-06 13:53 52.01580 0.59732 8005 ft 258 kts 259°
2026-05-06 13:53 52.01380 0.56911 7989 ft 246 kts 268°
2026-05-06 13:54 52.01273 0.54201 7975 ft 236 kts 267°
2026-05-06 13:54 52.01147 0.51545 7851 ft 238 kts 267°
2026-05-06 13:54 52.01010 0.48835 7708 ft 244 kts 266°
2026-05-06 13:54 52.00870 0.46064 7508 ft 248 kts 267°
2026-05-06 13:55 52.00756 0.43257 7254 ft 250 kts 268°
2026-05-06 13:55 52.00649 0.40444 7001 ft 250 kts 268°
2026-05-06 13:55 52.00539 0.37630 6759 ft 250 kts 268°
2026-05-06 13:55 52.00427 0.34823 6557 ft 248 kts 268°
2026-05-06 13:56 52.00313 0.32033 6348 ft 247 kts 267°
2026-05-06 13:56 52.00197 0.29266 6141 ft 245 kts 265°
2026-05-06 13:56 51.99641 0.26696 5884 ft 245 kts 230°
2026-05-06 13:56 51.98434 0.24793 5743 ft 241 kts 223°
2026-05-06 13:57 51.97206 0.22942 5594 ft 242 kts 223°
2026-05-06 13:57 51.95961 0.21064 5438 ft 247 kts 224°
2026-05-06 13:57 51.94702 0.19162 5297 ft 247 kts 224°
2026-05-06 13:57 51.93449 0.17270 5062 ft 250 kts 224°
2026-05-06 13:58 51.92164 0.15329 4695 ft 255 kts 224°
2026-05-06 13:58 51.90858 0.13356 4310 ft 258 kts 225°
2026-05-06 13:58 51.89552 0.11383 3942 ft 255 kts 225°
2026-05-06 13:58 51.88256 0.09428 3600 ft 254 kts 225°
2026-05-06 13:59 51.86979 0.07503 3460 ft 248 kts 225°
2026-05-06 13:59 51.85725 0.05612 3322 ft 244 kts 226°
2026-05-06 13:59 51.84500 0.03744 3198 ft 241 kts 225°
2026-05-06 13:59 51.83289 0.01896 3047 ft 238 kts 226°
2026-05-06 14:00 51.82094 0.00074 2931 ft 232 kts 226°
2026-05-06 14:00 51.80940 -0.01671 2829 ft 224 kts 223°
2026-05-06 14:00 51.79585 -0.02729 2674 ft 215 kts 185°
2026-05-06 14:00 51.78180 -0.02303 2592 ft 200 kts 152°
2026-05-06 14:01 51.77066 -0.01054 2543 ft 193 kts 132°
2026-05-06 14:01 51.76329 0.00661 2492 ft 187 kts 106°
2026-05-06 14:01 51.76114 0.02695 2501 ft 184 kts 83°
2026-05-06 14:01 51.76414 0.04706 2507 ft 181 kts 61°
2026-05-06 14:02 51.77162 0.06275 2509 ft 175 kts 40°
2026-05-06 14:02 51.78034 0.07661 2500 ft 176 kts 41°
2026-05-06 14:02 51.78906 0.09022 2491 ft 170 kts 40°
2026-05-06 14:02 51.79739 0.10287 2492 ft 158 kts 39°
2026-05-06 14:03 51.80535 0.11487 2333 ft 155 kts 40°
2026-05-06 14:03 51.81317 0.12666 2122 ft 153 kts 38°
2026-05-06 14:03 51.82079 0.13814 1920 ft 151 kts 38°
2026-05-06 14:03 51.82851 0.14977 1711 ft 146 kts 38°
2026-05-06 14:04 51.83568 0.16058 1538 ft 144 kts 38°
2026-05-06 14:04 51.84305 0.17168 1316 ft 140 kts 39°
2026-05-06 14:04 51.85018 0.18245 1122 ft 139 kts 39°
2026-05-06 14:04 51.85716 0.19318 887 ft 140 kts 38°
2026-05-06 14:05 51.86435 0.20374 694 ft 142 kts 40°
2026-05-06 14:05 51.87154 0.21459 524 ft 144 kts 40°
2026-05-06 14:05 51.87894 0.22574 353 ft 143 kts 40°
2026-05-06 14:05 51.88547 0.23545 348 ft 110 kts 43°
2026-05-06 14:06 51.88960 0.24169 352 ft 37 kts 46°
2026-05-06 14:06 51.89060 0.24382 352 ft 23 kts 63°
2026-05-06 14:06 51.89120 0.24617 357 ft 22 kts 67°
2026-05-06 14:06 51.89166 0.24797 351 ft 17 kts 69°
2026-05-06 14:07 51.89170 0.24974 353 ft 16 kts 40°
2026-05-06 14:07 51.89240 0.25109 356 ft 16 kts 58°
2026-05-06 14:07 51.89308 0.25244 351 ft 15 kts 44°
2026-05-06 14:07 51.89383 0.25358 351 ft 14 kts 43°
2026-05-06 14:08 51.89408 0.25494 353 ft 14 kts 120°
2026-05-06 14:08 51.89359 0.25625 354 ft 13 kts 127°
2026-05-06 14:08 51.89300 0.25734 351 ft 13 kts 133°
2026-05-06 14:08 51.89239 0.25838 353 ft 12 kts 133°
2026-05-06 14:09 51.89189 0.25926 356 ft 7 kts 131°
2026-05-06 14:09 51.89206 0.25992 355 ft 7 kts 43°
2026-05-06 14:09 51.89213 0.26003 355 ft 0 kts 43°